This is the latest recevied weather packets stored in our database for station/object HS5FXK-3. If no packets are shown the sender has not sent any weather packets the latest 1 day(s).
| Time | Temp. | Humidity | Pressure | Rain* | Wind** | Luminosity | Snow |
|---|---|---|---|---|---|---|---|
| 1777990408 | 30° C | 86% | 978 hPa | - | 0 m/s | 0 W/m² | - |
| 1777989496 | 30° C | 86% | 978 hPa | - | 0 m/s | 0 W/m² | - |
| 1777988583 | 30° C | 85% | 978 hPa | - | 0 m/s | 0 W/m² | - |
| 1777987671 | 30° C | 83% | 978 hPa | - | 0 m/s | 0 W/m² | - |
| 1777986758 | 30.56° C | 84% | 977 hPa | - | 0 m/s | 0 W/m² | - |
| 1777985845 | 30.56° C | 79% | 977 hPa | - | 0 m/s | 0 W/m² | - |
| 1777984932 | 31.11° C | 76% | 977 hPa | - | 0 m/s | 0 W/m² | - |
| 1777984018 | 31.11° C | 73% | 977 hPa | - | 0 m/s | 0 W/m² | - |
| 1777983105 | 31.11° C | 70% | 976 hPa | - | 0 m/s | 0 W/m² | - |
| 1777982325 | 31.67° C | 71% | 976 hPa | - | 0 m/s | 0 W/m² | - |
| 1777981411 | 32.22° C | 64% | 976 hPa | - | 0 m/s | 0 W/m² | - |
| 1777980498 | 32.78° C | 64% | 976 hPa | - | 0 m/s | 0 W/m² | - |
| 1777979586 | 32.78° C | 62% | 976 hPa | - | 0 m/s | 0 W/m² | - |
| 1777978672 | 33.33° C | 61% | 976 hPa | - | 0 m/s | 0 W/m² | - |
| 1777977759 | 33.89° C | 59% | 976 hPa | - | 0 m/s | 0 W/m² | - |
| 1777976847 | 33.89° C | 60% | 976 hPa | - | 0 m/s | 0 W/m² | - |
| 1777975952 | 33.33° C | 60% | 976 hPa | - | 0 m/s | 0 W/m² | - |
| 1777975035 | 33.89° C | 60% | 976 hPa | - | 0 m/s | 0 W/m² | - |
| 1777974131 | 33.89° C | 59% | 976 hPa | - | 0 m/s | 0 W/m² | - |
| 1777973195 | 33.89° C | 56% | 976 hPa | - | 0 m/s | 0 W/m² | - |
| 1777972283 | 34.44° C | 53% | 976 hPa | - | 0 m/s | 0 W/m² | - |
| 1777971370 | 35.56° C | 49% | 977 hPa | - | 0 m/s | 0 W/m² | - |
| 1777970457 | 35.56° C | 50% | 977 hPa | - | 0 m/s | 0 W/m² | - |
| 1777970016 | 35.56° C | 49% | 977 hPa | - | 0 m/s | 0 W/m² | - |
| 1777969102 | 35.56° C | 49% | 977 hPa | - | 0 m/s | 0 W/m² | - |
* Rain since midnight (hover to see other rain measurements)
** Current wind speed in m/s (hover to see current wind gust speed)